Location: Antioch
(38.0049°N, 121.8058°W)
Time: 03:38:02
(UTC+00:00)

OAO 3 Rocket - Pass Details

Date: 11 February 2026
Orbit: 613 x 660 km, 35.0° (Epoch: 8 March)

Event Time Altitude Azimuth Distance (km) Brightness Sun altitude
Exits shadow 13:34:22 26° 232° (SW) 1,202 4.1 -17.7°
Maximum altitude 13:35:40 31° 201° (SSW) 1,073 4.1 -17.4°
Drops below altitude 10° 13:39:41 10° 138° (SE) 1,958 6.3 -16.6°
Sets 13:42:11 0° 128° (SE) 2,858 7.5 -16.2°
